Station WPOW1 - West Point, WA Image indicating link to RSS feed of recent meteorological observations for station WPOW1


Conditions at WPOW1 as of
(3:00 am PDT)
1000 GMT on 04/14/2024:
     

Click on the graph icon in the table below to see a time series plot of the last five days of that observation.

5-day plot - Wind Direction Wind Direction (WDIR): NE ( 40 deg true )
5-day plot - Wind Speed Wind Speed (WSPD): 4 kts
5-day plot - Wind Gust Wind Gust (GST): 5 kts
5-day plot - Atmospheric Pressure Atmospheric Pressure (PRES):29.95 in
5-day plot - Pressure Tendency Pressure Tendency (PTDY):-0.01 in ( Falling )
5-day plot - Air Temperature Air Temperature (ATMP): 47.3 °F
5-day plot - Dew Point Dew Point (DEWP): 47.3 °F
5-day plot - Wind Chill Wind Chill (CHILL): 45.3 °F
5-day plot - Wind Speed at 10 Meters Wind Speed at 10 meters (WSPD10M): 4 kts
5-day plot - Wind Speed at 20 Meters Wind Speed at 20 meters (WSPD20M): 6 kts
5-day plot -  Wind Speed, Wind Gust and Atmospheric Pressure Combined plot of Wind Speed, Gust, and Air Pressure
Continuous Winds
TIME
(PDT)
5-day plot - Wind Direction WDIR 5-day plot - Wind Speed WSPD
3:00 amNNE ( 15 deg ) 5 kts
2:50 amN ( 1 deg ) 6 kts
2:40 amN ( 1 deg ) 6 kts
2:30 amN ( 359 deg ) 7 kts
2:20 amNNE ( 27 deg ) 6 kts
2:10 amNNE ( 26 deg ) 5 kts
 
Peak gust during the measurement hour
TIME
(PDT)
5-day plot - Gust Direction GDR 5-day plot - Gust Speed GST
2:22 amN ( 360 deg ) 8 kts
Previous observations
TIME
(PDT)
5-day plot - Wind Direction
WDIR
 
5-day plot - Wind Speed
WSPD
kts
5-day plot - Wind Gust
GST
kts
5-day plot - Wave Height
WVHT
ft
5-day plot - Dominant Wave Period
DPD
sec
5-day plot - Average Wave Period
APD
sec
5-day plot - Mean Wave Direction
MWD
 
5-day plot - Atmospheric Pressure
PRES
in
5-day plot - Pressure Tendency
PTDY
in
5-day plot - Air Temperature
ATMP
°F
5-day plot - Water Temperature
WTMP
°F
5-day plot - Dew Point
DEWP
°F
5-day plot - Salinity
SAL
psu
5-day plot - Visibility
VIS
nmi
5-day plot - Tide (above MLLW)
TIDE
ft
2024-04-14 02:00 amNNE 5 6----29.96+0.00 48.2- 48.2---
2024-04-14 01:00 am NE 5 6----29.97+0.02 48.9- 47.8---
2024-04-14 12:00 am NE 5 5----29.96+0.03 49.8- 48.0---
2024-04-13 11:00 pmNNE 8 9----29.96+0.04 51.4- 45.7---
2024-04-13 10:00 pm NE 7 7----29.95+0.04 50.5- 47.8---
2024-04-13 09:00 pmNNE 5 5----29.94+0.03 53.8- 43.7---
2024-04-13 08:00 pm NE 8 9----29.91+0.00 52.0- 46.9---
2024-04-13 07:00 pmNNE 9 10----29.91-0.01 52.5- 46.4---
2024-04-13 06:00 pmNNE 10 11----29.91-0.02 51.3- 47.1---
2024-04-13 05:00 pm NE 9 9----29.91-0.02 51.8- 47.7---
2024-04-13 04:00 pm NE 10 11----29.92-0.02 51.3- 47.5---
2024-04-13 03:00 pmNNE 11 12----29.93-0.02 51.1- 48.2---
2024-04-13 02:00 pmNNE 14 15----29.93-0.04 50.4- 48.0---
2024-04-13 01:00 pmNNE 15 16----29.94-0.01 49.8- 47.1---
2024-04-13 12:00 pmNNE 13 15----29.95+0.00 49.1- 46.6---
2024-04-13 11:00 am N 13 15----29.97+0.03 48.6- 46.2---
2024-04-13 10:00 amNNE 15 17----29.96+0.03 47.7- 46.0---
2024-04-13 09:00 amNNE 12 13----29.95+0.03 46.9- 45.9---
2024-04-13 08:00 amNNE 12 13----29.93+0.02 47.3- 45.7---
2024-04-13 07:00 am N 12 13----29.93+0.02 47.7- 45.0---
2024-04-13 06:00 am N 15 16----29.92+0.02 47.8- 44.2---
2024-04-13 05:00 amNNE 13 14----29.91+0.02 48.0- 43.7---
2024-04-13 04:00 am N 13 15----29.91+0.01 48.4- 43.2---
2024-04-13 03:00 am N 12 13----29.90+0.01 48.7- 43.3---